Погода в Шаргуне

Узбекистан     38°27′56″N   67°57′48″E
В апреле 2022 года жителям России запретили посещать сайт meteo.paraplan.net по решению Генеральной прокуратуры. Аудитория сайта уменьшилась в 10 раз. Владельцы сайта не видят смысла в поддержке погодного сервера в таких условиях. Сайт будет закрыт в октябре.
темп.,
°C
ветер,
м/с
пор.,
м/с
влажн.,
%
обл.,
%
осадки,
мм/ч
давл.,
гПа
погр.,
м
30 сентября, пт
пт3023:00+21с22230 0.0 101111
02:00+20с32245 0.0 101013
05:00+20с222550 0.0 101112
08:00+23св122054 0.0 1012120
11:00+27ююв32188 0.0 1012962
14:00+29ю4316100 0.0 10102264
17:00+26ююз2320100 0.0 1010143
20:00+23с322599 0.0 101217
1 октября, сб
сб123:00+23с2224100 0.0 101216
02:00+22с2225100 0.0 101122
05:00+21с333193 0.0 101250
08:00+21ююв113019 0.0 1014176
11:00+24ю32215 0.0 1014876
14:00+27ююз531439 0.0 10121548
17:00+25ююз43156 0.0 1012866
20:00+20ссв22215 0.0 101412
2 октября, вс
вс223:00+18ссв22245 0.0 101411
02:00+17с22255 0.0 101412
05:00+16ссв22270 0.0 101511
08:00+19вюв11245 0.0 1016154
11:00+23ю32190 0.0 1016871
14:00+25ю43150 0.0 10131597
17:00+23ю43180 0.0 1012974
20:00+17с21270 0.0 101411
3 октября, пн
пн323:00+15ссв22300 0.0 101511
02:00+14ссв11325 0.0 101411
05:00+13св113349 0.0 101510
08:00+17вюв112626 0.0 1016116
11:00+21ю32175 0.0 1015925
14:00+24ю43150 0.0 10141552
17:00+22ю43170 0.0 1014932
20:00+16с22250 0.0 101612
4 октября, вт
вт423:00+16с22262 0.0 101711
02:00+15с32280 0.0 101715
05:00+14с32280 0.0 101716
08:00+18ссв11220 0.0 1018107
11:00+23ююв32170 0.0 1018920
14:00+26ююв32130 0.0 10161961
17:00+25ю32130 0.0 1016701
20:00+18с22190 0.0 101912